Rbgn^[z[y[W
メイン
   新天体発見情報
     Comet C/2020 R6 (Rankin)
投稿するにはまず登録を

スレッド表示 | 新しいものから 前のトピック | 次のトピック | 下へ
投稿者 スレッド
佐藤裕久
投稿日時: 2020-9-23 15:10
モデレータ
登録日: 2005-6-12
居住地: 日本
投稿: 2129
オンライン
Comet C/2020 R6 (Rankin)

David Rankinの通報によると、9月15日UT、彼はMt Lemmonサーベイの1.5-m反射望遠鏡で得た、
CCD画像から彗星を発見した。
Rankinは、4枚全ての画像に約10"のコマが見えた。しかし尾はない。
小惑星センターのPCCP webpageに公表後、佐藤英貴氏(東京都文京区, 9月16.68日UT, 60秒露出
12枚のスタック, 0.51-m f/6.8 アストログラフ, Siding Spring, NSW, 遠隔操作: 強く集光した
8" のコマが見えるが、尾はない。4".9.の円形範囲で測定した光度は20.2等であった)ら、他の
CCD位置観測者によって彗星状と観測された。

彗星機能の報告は次の通り:

OC   Date        Reporter           Coma    Tail    PA          Exposures
I52  2020-09-15  D. C. Fuls         10"
Q62  2020-09-16  H. Sato             8"                           12x60s

発見位置は次のとおり、

     2020 UT             R.A. (2000) Decl.       Mag.   Observer
     Sept.15.42287    1 29 00.33   -14 40 39.0   20.2   Rankin
          15.42805    1 29 00.06   -14 40 39.1   21.1     "
          15.43320    1 28 59.65   -14 40 39.9   20.2     "
          15.43836    1 28 59.33   -14 40 39.4   20.3     "

MPCの放物線軌道要素、位置推算表は次のとおり、


Orbital elements:
    C/2020 R6 (Rankin)                                                          
T 2019 Sept. 15.14243 TT                                Rudenko                 
q   2.8456994            (2000.0)            P               Q                  
                   Peri.  266.54176     -0.01797939     +0.97468189             
                   Node    13.09606     +0.21720522     +0.22139222             
e   1.0            Incl.   79.61431     -0.97596037     +0.03131619             
From 34 observations 2020 Sept. 15-20.                                          
                                                                                
Ephemeris:
Date    TT    R. A. (2000) Decl.     Delta      r    Elong.  Phase   m1
2020 08 23    01 50 58.1 -14 40 18   3.7169  4.3867   125.9    10.8  20.3
...
2020 09 07    01 37 44.5 -14 42 40   3.6616  4.4904   141.1     8.1  20.3
...
2020 09 15    01 29 27.9 -14 40 49   3.6563  4.5461   148.8     6.6  20.4
...
2020 09 21    01 22 52.3 -14 36 50   3.6652  4.5881   153.9     5.5  20.4
2020 09 22    01 21 45.0 -14 35 54   3.6679  4.5951   154.6     5.4  20.4
2020 09 23    01 20 37.4 -14 34 53   3.6708  4.6021   155.4     5.2  20.5
...
2020 09 29    01 13 47.9 -14 26 59   3.6958  4.6442   158.8     4.5  20.5
...
2020 10 07    01 04 41.1 -14 11 13   3.7486  4.7005   160.0     4.2  20.6
...
2020 10 22    00 48 31.1 -13 24 31   3.9078  4.8065   151.6     5.7  20.8

(MPEC 2020-S148、CBET 4856)

スレッド表示 | 新しいものから 前のトピック | 次のトピック | トップ

投稿するにはまず登録を
 
© 1999 Tsutomu Seki.